This demonstration page uses our WeatherBlox Daily Observations layout. Learn more.

Left ArrowRight Arrow

41.12389, -100.76542

Hourly Observations for July 19, 2016

Temp ( °F °C ) Dew Point ( °F °C ) Humidity (%) Winds ( mph kmh ) Pressure ( in mb ) Visibility ( mi km ) Precip ( " mm )
12:06 am 00:06 Cloudy with Strong Thunderstorms 68 20 66 19 94 94 NW 22 35 30.09 1019 4 6 0.00 0.00
12:39 am 00:39 Cloudy with Strong Thunderstorms 68 20 64 18 88 88 WNW 23 37 30.15 1021 2 3 0.00 0.00
12:43 am 00:43 Cloudy with Heavy Rain 67 19.4 65 18.3 93 93 W 20 31 30.15 1021 1 2 0.46 11.68
12:48 am 00:48 Cloudy with Strong Thunderstorms 66 19 64 18 94 94 WNW 17 28 30.21 1023 2 2 0.53 13.46
12:53 am 00:53 Cloudy with Strong Thunderstorms 67 19.4 65 18.3 93 93 WNW 14 22 30.21 1023 2 3 0.60 15.24
1:04 am 01:04 Cloudy with Strong Thunderstorms 66 19 64 18 94 94 NW 14 22 30.21 1023 2 3 0.00 0.00
1:20 am 01:20 Cloudy with Thunderstorms 67 19.4 65 18.3 93 93 N 12 19 30.15 1021 5 8 0.28 7.11
1:53 am 01:53 Cloudy with Nearby Thunderstorms 68 20 65 18.3 90 90 E 9 15 30.16 1021 10 16 0.31 7.87
2:09 am 02:09 Mostly Cloudy with Light Rain 66 19 66 19 100 100 ESE 12 19 30.12 1020 10 16 0.00 0.00
2:29 am 02:29 Mostly Cloudy with Nearby Thunderstorms 67 19.4 66 18.9 97 97 E 13 20 30.09 1019 10 16 0.04 1.02
2:40 am 02:40 Cloudy with Thunderstorms 67 19.4 65 18.3 93 93 E 14 22 30.09 1019 8 13 0.05 1.27
2:53 am 02:53 Mostly Cloudy with Light Rain 67 19.4 65 18.3 93 93 E 14 22 30.09 1019 10 16 0.07 1.78
3:01 am 03:01 Mostly Cloudy with Nearby Thunderstorms 67 19.4 65 18.3 93 93 ESE 13 20 30.06 1018 9 14 0.01 0.25
3:53 am 03:53 Mostly Clear with Nearby Thunderstorms 68 20 63 17.2 84 84 E 12 19 30.06 1018 10 16 0.03 0.76
4:12 am 04:12 Partly Cloudy 66 19 64 18 94 94 ESE 10 17 30.06 1018 10 16 0.00 0.00
4:53 am 04:53 Clear 68 20 64 17.8 87 87 SSE 13 20 30.01 1016 10 16 0.00 0.03
5:53 am 05:53 Clear 68 20 63 17.2 84 84 SE 8 13 30.01 1016 10 16 0.00 0.00
6:53 am 06:53 Sunny 68 20 63 17.2 84 84 S 12 19 30.00 1016 10 16 0.00 0.00
7:53 am 07:53 Sunny 70 21.1 64 17.8 82 82 WSW 5 7 30.04 1017 10 16 0.00 0.00
8:53 am 08:53 Sunny 72 22.2 66 18.9 82 82 SSW 6 9 30.05 1018 10 16 0.00 0.00
9:53 am 09:53 Sunny 77 25 67 19.4 71 71 S 12 19 30.04 1017 10 16 0.00 0.00
10:53 am 10:53 Sunny 81 27.2 68 20 65 65 S 16 26 30.01 1016 10 16 0.00 0.00
11:53 am 11:53 Sunny 83 28.3 68 20 61 61 S 13 20 30.02 1017 10 16 0.00 0.00
12:53 pm 12:53 Sunny 86 30 70 21.1 59 59 SSW 10 17 29.99 1016 10 16 0.00 0.00
1:53 pm 13:53 Sunny 89 31.7 69 20.6 52 52 SSE 12 19 29.97 1015 10 16 0.00 0.00
2:53 pm 14:53 Sunny 91 32.8 70 21.1 50 50 S 9 15 29.96 1014 10 16 0.00 0.00
3:53 pm 15:53 Sunny 93 33.9 71 21.7 49 49 ESE 12 19 29.93 1013 10 16 0.00 0.00
4:53 pm 16:53 Sunny 95 35 69 20.6 43 43 SSE 9 15 29.90 1013 10 16 0.00 0.00
5:53 pm 17:53 Sunny 94 34.4 69 20.6 44 44 SSE 7 11 29.89 1012 10 16 0.00 0.00
6:53 pm 18:53 Sunny 91 32.8 70 21.1 50 50 SE 9 15 29.88 1012 10 16 0.00 0.00
7:53 pm 19:53 Sunny 87 30.6 73 22.8 63 63 ESE 8 13 29.87 1012 10 16 0.00 0.00
8:53 pm 20:53 Sunny 80 26.7 72 22.2 76 76 ESE 8 13 29.88 1012 10 16 0.00 0.00
9:53 pm 21:53 Clear 84 28.9 61 16.1 46 46 S 13 20 29.89 1012 10 16 0.00 0.00
10:53 pm 22:53 Clear 82 27.8 60 15.6 47 47 S 15 24 29.91 1013 10 16 0.00 0.00
11:53 pm 23:53 Clear 81 27.2 61 16.1 51 51 S 15 24 29.92 1013 10 16 0.00 0.00

Powered by AerisWeather